This is the latest recevied weather packets stored in our database for station/object KC3VCX. If no packets are shown the sender has not sent any weather packets the latest 10 day(s).
| Time | Temp. | Humidity | Pressure | Rain* | Wind** | Luminosity | Snow |
|---|---|---|---|---|---|---|---|
| 1777658242 | 8.33° C | 81% | 1013.7 hPa | 0 mm | - | 136 W/m² | - |
| 1777657939 | 8.33° C | 80% | 1013.6 hPa | 1.27 mm | - | 95 W/m² | - |
| 1777657635 | 8.89° C | 80% | 1013.6 hPa | 1.27 mm | - | 76 W/m² | - |
| 1777657333 | 8.89° C | 76% | 1013.4 hPa | 1.78 mm | - | 82 W/m² | - |
| 1777657030 | 9.44° C | 73% | 1013.4 hPa | 1.78 mm | - | 133 W/m² | - |
| 1777656727 | 10° C | 69% | 1013.2 hPa | 0 mm | - | 90 W/m² | - |
| 1777656423 | 10.56° C | 65% | 1013.5 hPa | 0 mm | - | 113 W/m² | - |
| 1777656118 | 10.56° C | 64% | 1013.3 hPa | 0 mm | - | 105 W/m² | - |
| 1777655814 | 11.11° C | 64% | 1013.4 hPa | 0 mm | - | 80 W/m² | - |
| 1777655511 | 11.11° C | 63% | 1013.4 hPa | 0 mm | - | 60 W/m² | - |
| 1777655209 | 11.11° C | 62% | 1013.5 hPa | 0 mm | - | 116 W/m² | - |
| 1777654905 | 11.11° C | 61% | 1013.5 hPa | 0 mm | - | 164 W/m² | - |
| 1777654603 | 11.11° C | 61% | 1013.4 hPa | 0 mm | - | 233 W/m² | - |
| 1777654299 | 11.67° C | 60% | 1013.4 hPa | 0 mm | - | 232 W/m² | - |
| 1777653998 | 11.67° C | 60% | 1013.5 hPa | 0 mm | - | 199 W/m² | - |
| 1777653694 | 11.67° C | 60% | 1013.5 hPa | 0 mm | - | 241 W/m² | - |
| 1777653390 | 11.67° C | 59% | 1013.7 hPa | 0 mm | - | 239 W/m² | - |
| 1777653088 | 11.67° C | 60% | 1013.6 hPa | 0 mm | - | 238 W/m² | - |
| 1777652783 | 11.11° C | 61% | 1013.8 hPa | 0 mm | - | 202 W/m² | - |
| 1777652481 | 11.11° C | 60% | 1014.1 hPa | 0 mm | - | 167 W/m² | - |
| 1777652178 | 11.11° C | 59% | 1014.1 hPa | 0 mm | - | 130 W/m² | - |
| 1777651875 | 12.22° C | 60% | 1013.9 hPa | 0 mm | - | 152 W/m² | - |
| 1777651572 | 12.22° C | 60% | 1014 hPa | 0 mm | - | 169 W/m² | - |
| 1777651269 | 12.22° C | 59% | 1014.1 hPa | 0 mm | - | 226 W/m² | - |
| 1777650965 | 11.67° C | 58% | 1013.9 hPa | 0 mm | - | 271 W/m² | - |
* Rain latest hour (hover to see other rain measurements)
** Current wind speed in m/s (hover to see current wind gust speed)